Weather in Tacuarembo

Uruguay     31°42′22″S   55°58′47″W
temp.,
°C
wind,
m/s
gust,
m/s
humid.,
%
clouds,
%
prec.,
mm/h
press.,
hPa
HPBL,
m
9 august, tue
tue900:00+8se41189100 0.1 1027363
03:00+7se5118796 0.1 1027413
06:00+7se41087100 0.0 1027444
09:00+8se51286100 0.0 1028441
12:00+13se787299 0.0 10291045
15:00+13se6871100 0.1 10261469
18:00+12se5107655 0.1 1027442
21:00+7sse39910 0.2 1029212
10 august, wed
wed1000:00+5se35940 0.0 1030118
03:00+4se35941 0.0 1029112
06:00+3se22952 0.0 102833
09:00+6se35850 0.0 1029225
12:00+11ese45590 0.0 1028770
15:00+13e34575 0.0 10261085
18:00+10ese2279100 0.0 102522
21:00+8e228996 0.0 102617
11 august, thu
thu1100:00+6ene2291100 0.0 102612
03:00+5ne229280 0.0 102515
06:00+5ne22941 0.0 102514
09:00+8nne24870 0.0 1026163
12:00+14nne45660 0.0 1025804
15:00+16n34550 0.0 10231237
18:00+12ne22780 0.0 102119
21:00+9ne23920 0.0 102252
12 august, fri
fri1200:00+9ne38945 0.0 1022171
03:00+8ne31094100 0.0 1021224
06:00+8ne31194100 0.0 1020251
09:00+10ne3989100 0.0 1020255
12:00+16nne5772100 0.0 1019598
15:00+19n5766100 0.0 10161144
18:00+15nne3385100 0.0 101628
21:00+12nne3493100 0.0 101764
13 august, sat
sat1300:00+12nne259570 0.0 101781
03:00+11n229475 0.0 101716
06:00+10e11926 0.0 101710
09:00+13ne23880 0.0 1018139
12:00+19ene22680 0.0 1018607
15:00+21ene23610 0.0 10161090
18:00+17e34840 0.0 101559
21:00+14e36931 0.0 1016106